Home   Weather   Comodoro Rivadavia   Past weeks

Flag for Argentina Past Weather in Comodoro Rivadavia, Chubut, Argentina — Yesterday and Last 2 Weeks

61 °F

Passing clouds.

Feels Like: 61 °F
Forecast: 51 / 66 °F
Wind: 8 mph from South

Location: Comodoro Rivadavia Aerodrome

Current Time: Oct 26, 2016 at 12:25:23 PM

Latest Report: Oct 26, 2016 at 12:00 PM

Visibility: N/A

Pressure: 30.30 "Hg

Humidity: 45%

Dew Point: 39 °F

Location of Comodoro RivadaviaLocation

Past Weather in Comodoro Rivadavia — Graph


Comodoro Rivadavia Temperature Yesterday

Maximum temperature yesterday: 77 °F (at 5:00 PM)
Minimum temperature yesterday: 57 °F (at 7:00 AM)
Average temperature yesterday: 67 °F

High & Low Weather Summary for the Past Weeks

High79 °F (Oct 24, 6:00 PM)100% (Oct 16, 6:00 AM)30.42 "Hg (Oct 16, 6:00 AM)
Low34 °F (Oct 15, 1:00 AM)24% (Oct 11, 4:00 PM)29.12 "Hg (Oct 12, 3:00 PM)
Average56 °F56%29.98 "Hg
* Reported Oct 11 11:00 AM — Oct 26 11:00 AM, Comodoro Rivadavia, Weather by CustomWeather, © 2016

Note: Actual official high and low records may vary slightly from our data, if they occured in-between our weather recording intervals... More about our weather records


Comodoro Rivadavia Weather History for the Previous 24 Hours

Scroll right to see more
Time TempWeatherWind HumidityBarometerVisibility
11:00 AM
Wed, Oct 26
59 °FPassing clouds.12 mph45%30.27 "HgN/A
10:00 AM59 °FSunny.10 mph48%30.27 "Hg10 mi
9:00 AM59 °FSunny.13 mph45%30.27 "Hg10 mi
8:00 AM55 °FPassing clouds.13 mph47%30.24 "HgN/A
7:00 AM52 °FPassing clouds.10 mph54%30.21 "HgN/A
6:00 AM52 °FClear.15 mph62%30.18 "Hg10 mi
5:00 AM52 °FClear.13 mph62%30.15 "Hg10 mi
4:00 AM55 °FClear.18 mph51%30.12 "Hg10 mi
3:00 AM55 °FClear.18 mph51%30.09 "Hg10 mi
2:00 AM55 °FPassing clouds.14 mph67%30.07 "HgN/A
1:00 AM57 °FRain. Passing clouds.9 mph67%30.04 "HgN/A
12:00 AM61 °FLight rain. Passing clouds.14 mph59%30.04 "HgN/A
11:00 PM
Tue, Oct 25
63 °FPassing clouds.8 mph52%30.01 "HgN/A
10:00 PM66 °FPassing clouds.18 mph46%29.98 "HgN/A
9:00 PM68 °FPassing clouds.24 mph40%29.95 "HgN/A
8:00 PM70 °FBroken clouds.16 mph40%29.92 "HgN/A
7:00 PM72 °FBroken clouds.21 mph36%29.92 "HgN/A
6:00 PM75 °FPassing clouds.20 mph31%29.92 "HgN/A
5:00 PM77 °FPassing clouds.18 mph32%29.92 "HgN/A
4:00 PM75 °FPassing clouds.14 mph34%29.95 "HgN/A
3:00 PM72 °FPassing clouds.9 mph41%30.01 "HgN/A
2:00 PM70 °FSunny.9 mph46%30.01 "Hg10 mi
1:00 PM68 °FSunny.16 mph43%30.04 "Hg10 mi
12:00 PM68 °FSunny.18 mph46%30.07 "Hg10 mi
Weather by CustomWeather, © 2016

See weather overviewHow to use our weather pages